This demonstration page uses our WeatherBlox Daily Observations layout. Learn more.

Left ArrowRight Arrow

Hourly Observations for September 13, 2020

Temp ( °F °C ) Dew Point ( °F °C ) Humidity (%) Winds ( mph kmh ) Pressure ( in mb ) Visibility ( mi km ) Precip ( " mm )
12:52 am 00:52 Clear 56 13.3 54 12.2 93 93 Calm 30.04 1017 10 16 0.00 0.00
1:52 am 01:52 Clear 54 12.2 52 11.1 93 93 Calm 30.05 1018 10 16 0.00 0.00
2:16 am 02:16 Partly Cloudy with Mist and Fog 53 11.7 53 11.7 100 100 Calm 30.06 1018 2 3 0.00 0.00
2:28 am 02:28 Mostly Clear 52 11.1 52 11.1 100 100 Calm 30.07 1018 10 16 0.00 0.00
2:52 am 02:52 Mostly Clear 53 11.7 53 11.7 100 100 Calm 30.06 1018 10 16 0.00 0.00
3:13 am 03:13 Mostly Clear with Mist and Fog 52 11.1 52 11.1 100 100 Calm 30.08 1019 2 3 0.00 0.00
3:17 am 03:17 Mostly Cloudy with Mist and Fog 52 11.1 52 11.1 100 100 Calm 30.08 1019 1 1 0.00 0.00
3:37 am 03:37 Mostly Cloudy with Fog 50 10 50 10 100 100 Calm 30.08 1019 0 0 0.00 0.00
3:48 am 03:48 Mostly Cloudy with Fog 52 11 52 11 100 100 N 3 6 30.08 1019 0 0 0.00 0.00
3:52 am 03:52 Mostly Cloudy with Fog 51 10.6 51 10.6 100 100 N 3 6 30.07 1018 0 0 0.00 0.00
4:05 am 04:05 Mostly Cloudy with Fog 51 10.6 51 10.6 100 100 Calm 30.09 1019 0 0 0.00 0.00
4:20 am 04:20 Mostly Cloudy with Mist and Fog 52 11.1 51 10.6 97 97 Calm 30.09 1019 1 1 0.00 0.00
4:22 am 04:22 Partly Cloudy with Mist and Fog 52 11.1 51 10.6 97 97 Calm 30.09 1019 1 2 0.00 0.00
4:27 am 04:27 Partly Cloudy with Mist and Fog 51 10.6 51 10.6 100 100 Calm 30.09 1019 4 6 0.00 0.00
4:35 am 04:35 Mostly Cloudy with Mist and Fog 51 10.6 51 10.6 100 100 Calm 30.10 1019 2 2 0.00 0.00
4:43 am 04:43 Mostly Cloudy with Fog 52 11.1 51 10.6 97 97 Calm 30.10 1019 1 1 0.00 0.00
4:52 am 04:52 Mostly Cloudy with Fog 51 10.6 51 10.6 100 100 Calm 30.08 1019 1 1 0.00 0.00
4:58 am 04:58 Mostly Cloudy with Mist and Fog 50 10 50 10 100 100 Calm 30.10 1019 2 3 0.00 0.00
5:06 am 05:06 Mostly Cloudy with Mist and Fog 51 10.6 51 10.6 100 100 Calm 30.11 1020 4 6 0.00 0.00
5:27 am 05:27 Mostly Cloudy with Mist and Fog 50 10 50 10 100 100 Calm 30.11 1020 3 4 0.00 0.00
5:39 am 05:39 Cloudy with Mist and Fog 51 10.6 50 10 96 96 Calm 30.11 1020 1 1 0.00 0.00
5:52 am 05:52 Mostly Cloudy with Fog 50 10 50 10 100 100 SSE 3 6 30.10 1019 1 1 0.00 0.00
5:59 am 05:59 Mostly Cloudy with Fog 50 10 50 10 100 100 SSE 5 7 30.11 1020 0 0 0.00 0.00
6:15 am 06:15 Mostly Cloudy with Fog 50 10 50 10 100 100 SSE 5 7 30.12 1020 1 1 0.00 0.00
6:24 am 06:24 Mostly Cloudy with Mist and Fog 50 10 50 10 100 100 SSE 5 7 30.12 1020 1 2 0.00 0.00
6:30 am 06:30 Mostly Cloudy with Mist and Fog 50 10 50 10 100 100 SSE 5 7 30.12 1020 3 5 0.00 0.00
6:40 am 06:40 Partly Cloudy with Mist and Fog 50 10 50 10 100 100 SSE 5 7 30.13 1020 5 8 0.00 0.00
6:52 am 06:52 Partly Cloudy with Mist and Fog 50 10 50 10 100 100 SE 6 9 30.11 1020 2 3 0.00 0.00
7:01 am 07:01 Partly Cloudy with Mist and Fog 50 10 50 10 100 100 SE 6 9 30.13 1020 3 5 0.00 0.00
7:52 am 07:52 Mostly Sunny 52 11.1 52 11.1 100 100 SE 3 6 30.13 1020 10 16 0.00 0.00
8:52 am 08:52 Sunny 57 13.9 55 12.8 93 93 Calm 30.14 1021 10 16 0.00 0.00
9:52 am 09:52 Sunny 62 16.7 55 12.8 78 78 Calm 30.15 1021 10 16 0.00 0.00
10:52 am 10:52 Sunny 68 20 56 13.3 65 65 S 3 6 30.15 1021 10 16 0.00 0.00
11:52 am 11:52 Sunny 74 23.3 55 12.8 52 52 VRB 3 6 30.15 1021 10 16 0.00 0.00
12:52 pm 12:52 Mostly Sunny 75 23.9 55 12.8 50 50 undefined N/A 30.14 1021 10 16 0.00 0.00
1:52 pm 13:52 Sunny 77 25 55 12.8 47 47 S 6 9 30.12 1020 10 16 0.00 0.00
2:52 pm 14:52 Partly Cloudy 79 26.1 55 12.8 44 44 VRB 3 6 30.12 1020 10 16 0.00 0.00
3:52 pm 15:52 Partly Cloudy 79 26.1 55 12.8 44 44 VRB 3 6 30.11 1020 10 16 0.00 0.00
4:52 pm 16:52 Mostly Sunny 80 26.7 54 12.2 41 41 VRB 6 9 30.11 1020 10 16 0.00 0.00
5:52 pm 17:52 Mostly Sunny 80 26.7 54 12.2 41 41 SE 6 9 30.12 1020 10 16 0.00 0.00
6:52 pm 18:52 Mostly Sunny 78 25.6 56 13.3 47 47 SSW 6 9 30.13 1020 10 16 0.00 0.00
7:52 pm 19:52 Mostly Clear 71 21.7 58 14.4 63 63 SSE 5 7 30.15 1021 10 16 0.00 0.00
8:52 pm 20:52 Clear 67 19.4 60 15.6 79 79 SE 6 9 30.17 1022 10 16 0.00 0.00
9:52 pm 21:52 Clear 65 18.3 59 15 81 81 SSE 5 7 30.19 1022 10 16 0.00 0.00
10:52 pm 22:52 Clear 64 17.8 59 15 84 84 S 5 7 30.19 1022 10 16 0.00 0.00
11:52 pm 23:52 Clear 63 17.2 58 14.4 84 84 SSE 3 6 30.20 1023 10 16 0.00 0.00

Powered by AerisWeather